SCP
0 0 0 0 0 0 0 0 0 0 0 0 0 0 0 0 0 0 -0 0 0 -0 -0 -0 -0 0 0 -0 -0 -0 -0 -0 -0 -0 -0 -0 -0 -0 -0 -0 -0 -0 -0 -0 -0 -0 -0 -0 -0
0 0 0 0 0 0 0 0 0 0 0 0 0 0 0 0 0 0 0 0 0 -0 -0 -0 0 0 0 0 0 0 0 -0 -0 -0 -0 -0 -0 -0 -0 -0 -0 -0 -0 -0 -0 -0 -0 0 0
0 0 0 0 0 0 0 0 0 0 0 0 0 0 0 0 0 0 0 0 -0 -0 -0 0 0 0 0 0 0 0 0 0 0 -0 -0 -0 -0 -0 -0 -0 -0 0 0 0 0 0 0 0 0
0 0 0 0 0 0 0 0 0 0 0 0 0 0 0 0 0 0 0 0 0 0 0 0 0 0 0 0 0 0 0 0 0 0 0 0 0 0 0 0 0 0 0 0 0 0 0 0 0
0 0 0 0 -0 0 0 0 0 0 0 0 0 0 0 0 0 0 0 0 0 0 0 0 0 0 0 0 0 0 0 0 0 0 0 0 0 0 0 0 0 0 0 0 0 0 0 0 0
0 0 0 0 -0 -0 0 0 0 0 0 0 0 0 0 0 0 0 0 0 0 0 0 0 0 0 0 0 0 0 0 0 0 0 0 0 0 0 0 0 0 0 0 0 0 0 0 0 0
0 0 0 0 0 -0 0 0 0 0 0 0 0 0 0 0 0 0 0 0 0 0 0 0 0 0 0 0 0 0 0 0 0 0 0 0 0 0 0 0 0 0 0 0 0 0 0 0 0
0 0 0 0 0 -0 0 0 0 0 0 0 0 0 0 0 0 0 0 0 0 0 0 0 0 0 0 0 0 0 0 0 0 0 0 0 0 0 0 0 0 0 0 0 0 0 0 0 0
0 0 0 0 0 0 0 0 0 0 0 0 0 0 0 0 -0 0 0 0 0 0 0 0 0 0 0 0 0 0 0 0 0 0 0 0 0 0 0 0 0 0 0 0 0 0 0 0 0
0 0 0 0 0 0 0 0 0 0 0 0 0 0 0 0 -0 0 0 0 0 0 0 0 0 0 0 0 0 0 0 0 0 0 0 0 0 0 0 0 0 0 0 0 0 0 0 0 0
0 0 0 0 0 0 0 0 0 0 0 0 0 0 0 0 0 -0 0 0 0 0 0 0 0 0 0 0 0 0 0 0 0 0 0 0 0 0 0 0 0 0 0 0 0 0 0 0 0
0 0 0 0 0 0 0 0 0 0 0 0 0 0 0 0 0 0 0 0 0 0 0 0 0 0 0 0 0 0 0 0 0 0 0 0 0 0 0 0 0 0 0 0 0 0 0 0 0
0 0 0 0 0 0 0 0 0 0 0 0 0 0 0 0 0 0 0 0 0 0 0 0 0 0 0 0 0 0 0 0 0 0 0 0 0 0 0 0 0 0 0 0 0 0 0 0 0
0 0 0 0 0 0 0 0 0 0 0 0 0 0 0 0 0 0 0 0 0 0 0 0 0 0 0 0 0 0 0 0 0 0 0 0 0 0 0 0 0 0 0 0 0 0 0 0 0
0 0 0 0 0 0 0 0 0 0 0 0 0 0 0 0 0 0 0 0 0 0 0 0 0 0 0 0 0 0 0 0 0 0 0 0 0 0 0 0 0 0 0 0 0 0 0 0 0
0 0 0 0 0 0 0 0 0 0 0 0 0 0 0 0 0 0 0 0 0 0 0 0 0 0 0 0 0 0 0 0 0 0 0 0 0 0 0 0 0 0 0 0 0 0 0 0 0
0 0 0 0 0 0 0 0 0 0 0 0 0 0 0 0 0 0 0 0 0 0 0 0 0 0 0 0 0 0 0 0 0 0 0 0 0 0 0 0 0 0 0 0 0 0 0 0 0
0 0 0 0 0 0 0 0 0 0 0 0 0 0 0 0 0 0 0 0 0 0 0 0 0 0 0 0 0 0 0 0 0 0 0 0 0 0 0 0 0 0 0 0 0 0 0 0 0
0 0 0 0 0 0 0 0 0 0 0 0 0 0 0 0 0 0 0 0 0 0 0 0 0 0 0 0 0 0 0 0 0 0 0 0 0 0 0 0 0 0 0 0 0 0 0 0 0
0 0 0 -0 -0 0 0 0 0 -0 -0 -0 0 0 0 0 0 0 0 0 0 0 0 0 0 0 0 0 0 0 0 0 0 0 0 0 0 0 0 0 0 0 0 0 0 0 0 0 0
0 0 0 0 0 0 -0 -0 -0 -0 -0 0 0 0 0 0 0 0 0 0 0 0 0 0 0 0 0 0 0 0 0 0 0 0 0 0 0 0 0 0 0 0 0 0 0 0 0 0 0
0 0 0 0 0 0 0 0 -0 -0 0 0 0 0 0 0 0 0 0 0 0 0 0 0 0 0 0 0 0 0 0 0 0 0 0 0 0 0 0 0 0 0 0 0 0 0 0 0 0
0 0 0 0 0 0 0 0 0 0 0 0 0 0 0 0 0 -0 -0 0 0 0 0 0 0 0 0 0 0 0 0 0 0 0 0 0 0 0 0 0 0 0 0 0 0 0 0 0 0
0 0 0 0 0 0 0 0 0 0 -0 -0 0 -0 -0 -0 -0 -0 -0 -0 0 0 0 0 0 0 0 0 0 0 0 0 0 0 0 0 0 0 0 0 0 0 0 0 0 0 0 0 0
0 0 0 0 0 0 0 0 0 -0 -0 0 0 0 -0 -0 -0 -0 0 0 0 0 0 0 1 0 0 0 0 0 0 0 0 0 0 0 0 0 0 0 0 0 0 0 0 0 0 0 0
0 0 0 0 0 0 0 0 0 0 0 0 0 0 -0 -0 0 -0 -0 -0 0 0 0 0 0 0 0 0 0 0 0 0 0 0 0 0 0 0 0 0 0 0 0 0 0 0 0 0 0
0 0 0 0 0 0 0 0 -0 0 0 0 0 -0 -0 -0 -0 -0 0 0 0 0 0 0 0 0 0 0 0 0 0 0 0 0 0 0 0 0 0 0 0 0 0 0 0 0 0 0 0
0 0 0 0 0 0 0 0 0 0 0 -0 -0 -0 -0 0 0 0 0 0 0 0 0 1 1 0 0 0 0 0 0 0 0 0 0 0 0 0 0 0 0 0 0 0 0 0 0 0 0
0 0 0 0 0 0 0 0 -0 0 -0 -0 -0 -0 0 -0 0 0 -0 0 0 0 0 1 0 0 0 0 0 0 0 0 0 0 0 0 0 0 0 0 0 0 0 0 0 0 0 0 0
0 0 0 0 0 0 0 -0 0 0 0 0 0 -0 -0 -0 0 -0 -0 0 0 0 0 0 0 0 0 0 0 0 0 0 0 0 0 0 0 0 0 0 0 0 0 0 0 0 0 0 0
Wind_Speed_500mb
13 14 11 5 11 11 27 15 14 14 7 5 13 12 9 8 8 7 5 22 35 55 51 49 43 42 37 37 34 33 29 26 25 28 28 26 27 30 28 25 25 23 24 23 23 24 25 26 25
13 13 6 4 14 24 22 23 21 17 6 8 15 16 13 8 13 11 7 27 37 55 50 50 45 43 43 42 32 30 28 28 30 31 30 29 28 27 25 26 26 25 23 23 23 24 25 25 26
15 11 8 7 16 28 21 10 20 10 8 10 10 12 9 6 10 10 11 29 43 59 53 51 47 48 48 45 34 27 30 30 34 32 30 30 28 28 26 25 25 25 23 24 22 23 27 26 25
6 5 5 16 29 19 21 9 5 4 4 4 10 11 9 21 8 13 18 32 48 56 56 54 52 52 53 47 34 29 32 31 33 33 31 30 26 27 27 27 27 26 22 23 22 22 24 26 24
6 7 17 18 31 27 18 16 14 13 8 4 6 11 11 12 24 19 18 36 49 53 55 54 57 60 56 45 38 32 30 30 32 33 31 30 29 27 26 25 25 25 24 23 23 23 25 23 22
13 8 19 27 33 31 21 25 27 32 29 26 16 21 18 23 23 22 24 42 52 52 53 55 57 61 59 50 45 37 32 34 35 34 32 31 29 28 29 27 25 24 26 24 23 21 19 17 12
19 18 34 39 37 36 34 13 21 30 34 36 27 25 19 27 24 26 27 43 54 52 56 55 56 56 54 54 49 43 41 39 38 37 33 30 30 30 28 29 27 27 24 23 21 18 16 12 11
14 13 35 34 34 47 43 41 33 32 34 15 7 12 16 11 21 24 33 45 53 57 57 62 60 61 56 53 51 48 44 45 43 38 34 34 35 32 32 31 30 28 25 20 19 17 14 9 10
8 16 28 40 39 39 37 25 20 16 22 19 19 25 24 31 20 25 35 46 56 63 66 62 65 59 52 52 54 51 50 47 48 45 41 38 31 34 33 34 33 33 28 20 18 20 11 8 16
20 22 29 26 29 31 38 44 43 42 43 37 28 27 36 36 22 26 40 56 61 70 74 70 65 63 56 51 54 54 55 55 53 51 50 46 40 36 36 34 35 32 31 26 20 15 10 7 18
5 21 16 16 11 20 22 32 31 33 39 43 46 49 33 30 28 32 42 60 70 61 75 76 75 66 60 53 53 51 50 56 59 55 54 48 46 45 38 36 33 33 28 27 23 21 17 15 20
11 8 6 15 22 24 26 28 31 47 56 52 47 45 36 35 43 46 47 54 67 68 75 77 81 77 65 54 57 51 55 55 56 60 58 56 51 47 43 41 37 34 33 32 27 25 19 19 22
11 11 21 25 37 39 43 49 51 58 55 46 51 54 54 51 50 51 52 50 66 70 74 88 88 86 71 65 55 52 54 61 57 51 60 56 46 46 41 38 41 40 37 34 31 25 21 23 27
9 22 34 29 30 23 28 32 30 40 50 54 47 52 60 65 62 59 56 56 63 76 81 87 90 92 83 73 66 59 56 58 55 51 53 53 44 50 46 39 39 34 34 35 30 25 24 28 31
17 20 21 3 14 21 33 28 21 8 18 19 28 34 52 68 61 62 65 67 66 78 77 91 97 98 90 82 75 73 70 64 55 54 55 55 51 47 43 42 41 36 34 35 31 28 29 33 34
10 4 10 4 27 10 27 28 20 29 38 61 75 69 59 55 55 65 71 69 65 69 86 90 102 105 96 88 83 79 75 77 67 56 59 60 54 45 46 43 41 40 39 38 33 30 36 37 36
7 12 25 20 16 23 13 39 28 52 69 67 65 67 69 69 71 62 56 65 74 75 78 95 104 108 102 91 88 85 80 75 76 73 67 62 59 52 49 44 42 42 42 40 36 36 39 39 39
22 19 19 31 15 38 44 53 45 59 63 70 74 77 75 73 72 72 70 57 61 77 91 95 104 108 107 102 90 89 85 77 79 76 70 64 61 59 56 52 49 46 44 43 40 42 43 40 39
16 25 35 40 41 39 33 50 51 63 67 73 77 74 79 79 70 67 73 76 64 68 91 103 105 111 108 106 112 102 95 89 84 78 72 69 62 60 59 55 53 50 49 46 45 46 45 45 44
18 28 31 28 20 30 44 58 53 46 62 68 70 75 73 76 74 68 69 77 80 70 86 98 110 121 116 116 123 108 102 92 87 81 76 72 66 65 65 59 55 53 54 50 47 48 50 48 47
23 21 23 36 34 35 44 45 37 47 65 66 61 63 66 67 74 74 71 75 79 82 77 97 113 118 122 117 117 111 105 97 92 88 84 77 70 69 62 62 57 55 53 50 50 51 50 49 51
14 8 23 36 31 20 21 30 30 37 39 43 46 30 31 43 48 54 63 77 82 85 87 90 110 122 125 119 122 127 121 115 107 94 88 82 74 70 64 64 60 57 55 52 49 47 47 42 43
15 24 33 40 34 29 19 14 25 52 42 34 26 28 33 42 50 51 50 64 78 86 86 90 112 115 124 104 133 125 124 117 105 99 94 84 79 74 69 68 63 61 56 53 48 46 44 39 38
24 22 42 17 8 10 14 11 34 42 24 45 25 36 47 62 63 57 63 61 70 83 95 94 97 114 124 126 124 126 130 124 110 103 96 90 84 77 71 64 63 58 54 50 45 42 39 36 33
3 25 12 7 9 22 31 26 41 54 41 26 29 48 59 68 67 72 83 77 77 77 93 96 100 111 125 124 124 133 138 126 110 99 98 96 88 77 73 65 52 49 49 45 41 38 34 30 28
27 6 7 15 26 39 35 19 24 39 49 36 42 59 72 81 73 82 85 91 84 85 94 97 99 108 121 119 129 134 140 125 114 108 107 100 90 81 73 64 50 43 41 40 35 33 31 27 24
4 8 15 13 28 22 20 44 46 42 30 36 48 66 79 80 98 99 99 86 80 85 92 97 105 103 116 121 126 126 139 141 112 108 104 97 88 83 79 72 62 48 41 40 36 33 29 24 20
16 10 6 8 18 32 28 49 27 38 40 39 46 61 78 92 91 89 85 80 55 70 80 88 96 104 115 121 121 124 127 125 111 122 110 97 91 82 74 75 68 57 50 48 42 30 21 15 14
7 6 11 10 13 17 25 28 13 37 33 43 55 74 86 92 83 83 85 41 38 51 65 77 89 104 103 122 121 121 123 115 120 112 104 95 85 77 79 74 67 63 57 46 38 32 22 21 31
15 11 11 10 18 28 28 46 45 27 47 54 60 78 86 86 76 63 53 32 48 53 60 70 87 99 116 116 107 121 123 121 121 109 97 90 80 73 83 84 75 61 50 35 31 29 32 35 30
Wind_Direction_500mb
326 337 337 325 242 239 236 226 240 211 228 178 150 203 232 305 227 333 270 187 172 180 179 187 187 190 184 192 189 185 187 187 175 167 167 163 155 143 138 135 132 126 122 121 120 117 116 113 107
320 330 323 224 248 238 237 232 219 228 235 212 202 212 235 252 230 274 256 185 182 182 180 185 186 181 182 195 193 185 187 183 168 157 161 157 149 143 140 139 131 130 129 127 121 116 115 115 111
312 319 278 245 240 245 263 211 249 241 322 221 217 222 229 211 234 222 205 183 178 183 184 188 186 181 185 196 199 200 191 183 165 165 161 162 154 152 149 138 143 139 131 123 115 109 105 114 111
288 292 223 245 241 246 252 310 244 267 109 259 286 247 248 227 210 218 224 189 181 182 186 191 185 184 192 195 197 203 194 186 178 167 170 163 160 160 148 148 141 139 127 125 115 105 110 117 114
251 240 251 245 256 260 249 283 257 269 295 283 270 272 274 283 249 253 232 198 183 180 188 191 187 187 194 197 195 194 198 194 185 179 175 170 169 165 159 149 136 131 129 122 118 113 113 115 118
226 259 241 250 254 255 267 270 271 270 274 277 268 271 272 275 270 256 222 198 187 184 186 190 191 196 196 198 197 198 200 197 187 184 178 176 169 159 151 145 134 136 133 125 122 120 120 120 114
242 240 253 263 265 263 262 290 266 278 282 276 266 269 280 288 267 246 217 197 190 187 189 189 191 197 202 202 201 205 200 199 192 190 186 177 169 162 153 148 154 147 145 140 135 141 140 141 128
228 252 258 251 260 261 262 268 271 274 277 277 221 265 265 305 296 239 210 197 195 195 191 192 194 200 204 207 207 205 204 195 194 193 186 178 174 171 167 160 154 151 152 150 149 154 156 148 148
198 244 249 251 258 268 263 255 245 270 272 268 262 264 276 294 294 231 202 194 200 203 197 196 198 197 196 201 206 206 202 198 193 190 187 181 177 172 169 166 160 157 162 157 163 166 179 205 161
223 242 261 271 285 277 285 274 281 276 266 261 256 265 281 275 267 231 211 205 204 209 199 206 200 199 199 200 204 203 199 195 194 190 187 183 180 177 176 170 165 166 173 172 180 200 206 191 158
232 254 303 253 327 330 296 284 275 275 263 264 269 272 260 248 242 240 237 228 221 214 206 210 209 207 205 203 201 196 196 194 194 192 190 185 181 187 177 180 180 174 185 188 192 199 202 191 175
274 258 330 305 317 312 295 295 278 273 270 274 271 272 263 246 247 240 231 234 225 218 217 214 213 209 211 206 203 200 197 197 194 192 191 188 186 187 182 182 181 183 193 204 207 205 209 196 192
254 295 307 301 298 290 288 275 273 269 273 268 272 269 262 255 245 239 237 235 232 225 224 220 215 216 210 209 204 203 202 200 196 193 190 189 189 189 182 188 186 193 201 208 211 209 209 203 196
311 293 294 294 296 294 282 292 286 274 276 270 272 271 268 262 254 249 244 231 229 235 234 225 222 219 216 212 207 205 204 202 197 194 195 194 195 192 189 192 198 204 209 213 206 214 213 200 193
285 293 298 68 343 311 331 283 247 357 357 314 303 299 278 266 264 258 252 245 234 233 228 227 221 220 220 214 212 209 206 204 200 198 197 200 198 193 195 200 205 208 215 206 209 213 206 196 193
293 271 342 340 319 327 335 289 297 321 310 307 302 294 286 283 278 268 259 251 242 233 225 232 227 220 221 214 214 210 208 210 204 202 202 200 197 199 207 208 214 213 213 215 214 213 199 195 194
27 318 318 322 298 310 305 301 307 299 297 295 292 288 286 279 273 268 266 258 247 238 227 232 229 223 224 213 213 211 211 211 209 207 203 199 200 204 204 211 216 216 218 216 214 208 203 201 198
315 315 297 296 310 307 301 287 292 296 290 285 284 282 277 270 267 265 262 262 254 243 230 227 228 224 220 214 211 210 211 209 210 207 204 203 201 206 209 212 216 219 219 217 213 209 203 203 202
294 285 288 293 297 300 287 289 294 291 288 281 279 278 278 275 271 267 258 254 256 249 230 231 222 216 217 210 211 210 209 206 207 207 206 203 207 208 213 216 217 221 220 216 216 210 208 201 202
286 289 288 287 284 302 296 295 294 289 277 280 281 278 274 279 278 271 262 253 249 249 238 229 220 217 219 218 214 211 209 206 207 207 205 205 209 212 217 219 219 217 214 212 214 211 206 207 201
291 278 290 293 311 288 290 288 303 300 292 288 287 283 283 282 284 283 270 259 252 244 239 224 225 217 219 222 214 209 208 207 206 206 205 208 212 215 219 219 220 218 216 219 214 212 214 213 205
303 332 303 300 313 306 335 297 309 294 303 296 300 309 300 301 297 289 278 265 257 249 241 233 221 211 217 220 208 212 210 206 206 206 206 209 214 216 219 219 215 215 216 214 213 212 213 218 218
283 318 298 293 290 302 286 245 302 299 305 307 318 306 307 305 304 302 288 270 260 250 239 234 221 219 211 219 213 215 213 209 206 205 207 209 213 216 218 214 211 211 210 206 208 208 207 213 220
295 301 299 290 265 242 275 252 293 296 309 307 311 303 309 311 304 298 297 281 263 250 242 228 226 210 214 217 218 216 212 205 206 204 204 207 212 214 215 205 205 205 205 202 200 202 206 209 218
251 332 320 301 282 286 305 296 264 284 300 279 296 298 308 312 304 300 295 281 267 250 236 228 221 218 213 216 221 214 212 211 208 209 207 206 209 208 209 204 200 199 200 196 195 197 201 199 205
309 273 302 302 313 301 304 252 267 300 303 276 280 293 312 311 305 299 291 284 264 242 231 223 218 214 210 214 216 216 213 209 208 209 207 207 210 209 202 192 181 184 188 184 183 185 186 188 192
91 243 314 270 269 275 269 275 289 278 292 284 301 311 305 310 315 302 296 283 267 234 222 218 215 217 210 213 212 204 208 207 205 208 207 203 203 203 196 188 185 176 179 182 177 179 176 180 191
229 350 274 272 301 301 289 291 281 303 305 314 310 314 318 311 307 303 296 289 258 224 219 213 210 211 209 210 204 213 209 205 200 206 205 201 199 204 197 182 171 173 179 176 169 160 157 187 237
223 253 219 286 263 291 306 300 302 313 308 312 315 318 318 313 311 310 313 285 242 223 214 207 205 204 203 203 205 207 209 203 208 198 198 199 196 197 184 175 169 173 173 173 165 161 194 218 230
241 253 239 275 289 275 285 277 287 285 322 312 317 324 319 317 312 314 316 264 243 224 213 209 200 201 205 207 209 208 206 201 199 194 197 188 191 187 180 174 174 176 172 177 206 193 210 220 220
Wind_Speed_850mb
13 14 11 5 11 11 27 15 14 14 7 5 13 12 9 8 8 7 5 22 35 55 51 49 43 42 37 37 34 33 29 26 25 28 28 26 27 30 28 25 25 23 24 23 23 24 25 26 25
13 13 6 4 14 24 22 23 21 17 6 8 15 16 13 8 13 11 7 27 37 55 50 50 45 43 43 42 32 30 28 28 30 31 30 29 28 27 25 26 26 25 23 23 23 24 25 25 26
15 11 8 7 16 28 21 10 20 10 8 10 10 12 9 6 10 10 11 29 43 59 53 51 47 48 48 45 34 27 30 30 34 32 30 30 28 28 26 25 25 25 23 24 22 23 27 26 25
6 5 5 16 29 19 21 9 5 4 4 4 10 11 9 21 8 13 18 32 48 56 56 54 52 52 53 47 34 29 32 31 33 33 31 30 26 27 27 27 27 26 22 23 22 22 24 26 24
6 7 17 18 31 27 18 16 14 13 8 4 6 11 11 12 24 19 18 36 49 53 55 54 57 60 56 45 38 32 30 30 32 33 31 30 29 27 26 25 25 25 24 23 23 23 25 23 22
13 8 19 27 33 31 21 25 27 32 29 26 16 21 18 23 23 22 24 42 52 52 53 55 57 61 59 50 45 37 32 34 35 34 32 31 29 28 29 27 25 24 26 24 23 21 19 17 12
19 18 34 39 37 36 34 13 21 30 34 36 27 25 19 27 24 26 27 43 54 52 56 55 56 56 54 54 49 43 41 39 38 37 33 30 30 30 28 29 27 27 24 23 21 18 16 12 11
14 13 35 34 34 47 43 41 33 32 34 15 7 12 16 11 21 24 33 45 53 57 57 62 60 61 56 53 51 48 44 45 43 38 34 34 35 32 32 31 30 28 25 20 19 17 14 9 10
8 16 28 40 39 39 37 25 20 16 22 19 19 25 24 31 20 25 35 46 56 63 66 62 65 59 52 52 54 51 50 47 48 45 41 38 31 34 33 34 33 33 28 20 18 20 11 8 16
20 22 29 26 29 31 38 44 43 42 43 37 28 27 36 36 22 26 40 56 61 70 74 70 65 63 56 51 54 54 55 55 53 51 50 46 40 36 36 34 35 32 31 26 20 15 10 7 18
5 21 16 16 11 20 22 32 31 33 39 43 46 49 33 30 28 32 42 60 70 61 75 76 75 66 60 53 53 51 50 56 59 55 54 48 46 45 38 36 33 33 28 27 23 21 17 15 20
11 8 6 15 22 24 26 28 31 47 56 52 47 45 36 35 43 46 47 54 67 68 75 77 81 77 65 54 57 51 55 55 56 60 58 56 51 47 43 41 37 34 33 32 27 25 19 19 22
11 11 21 25 37 39 43 49 51 58 55 46 51 54 54 51 50 51 52 50 66 70 74 88 88 86 71 65 55 52 54 61 57 51 60 56 46 46 41 38 41 40 37 34 31 25 21 23 27
9 22 34 29 30 23 28 32 30 40 50 54 47 52 60 65 62 59 56 56 63 76 81 87 90 92 83 73 66 59 56 58 55 51 53 53 44 50 46 39 39 34 34 35 30 25 24 28 31
17 20 21 3 14 21 33 28 21 8 18 19 28 34 52 68 61 62 65 67 66 78 77 91 97 98 90 82 75 73 70 64 55 54 55 55 51 47 43 42 41 36 34 35 31 28 29 33 34
10 4 10 4 27 10 27 28 20 29 38 61 75 69 59 55 55 65 71 69 65 69 86 90 102 105 96 88 83 79 75 77 67 56 59 60 54 45 46 43 41 40 39 38 33 30 36 37 36
7 12 25 20 16 23 13 39 28 52 69 67 65 67 69 69 71 62 56 65 74 75 78 95 104 108 102 91 88 85 80 75 76 73 67 62 59 52 49 44 42 42 42 40 36 36 39 39 39
22 19 19 31 15 38 44 53 45 59 63 70 74 77 75 73 72 72 70 57 61 77 91 95 104 108 107 102 90 89 85 77 79 76 70 64 61 59 56 52 49 46 44 43 40 42 43 40 39
16 25 35 40 41 39 33 50 51 63 67 73 77 74 79 79 70 67 73 76 64 68 91 103 105 111 108 106 112 102 95 89 84 78 72 69 62 60 59 55 53 50 49 46 45 46 45 45 44
18 28 31 28 20 30 44 58 53 46 62 68 70 75 73 76 74 68 69 77 80 70 86 98 110 121 116 116 123 108 102 92 87 81 76 72 66 65 65 59 55 53 54 50 47 48 50 48 47
23 21 23 36 34 35 44 45 37 47 65 66 61 63 66 67 74 74 71 75 79 82 77 97 113 118 122 117 117 111 105 97 92 88 84 77 70 69 62 62 57 55 53 50 50 51 50 49 51
14 8 23 36 31 20 21 30 30 37 39 43 46 30 31 43 48 54 63 77 82 85 87 90 110 122 125 119 122 127 121 115 107 94 88 82 74 70 64 64 60 57 55 52 49 47 47 42 43
15 24 33 40 34 29 19 14 25 52 42 34 26 28 33 42 50 51 50 64 78 86 86 90 112 115 124 104 133 125 124 117 105 99 94 84 79 74 69 68 63 61 56 53 48 46 44 39 38
24 22 42 17 8 10 14 11 34 42 24 45 25 36 47 62 63 57 63 61 70 83 95 94 97 114 124 126 124 126 130 124 110 103 96 90 84 77 71 64 63 58 54 50 45 42 39 36 33
3 25 12 7 9 22 31 26 41 54 41 26 29 48 59 68 67 72 83 77 77 77 93 96 100 111 125 124 124 133 138 126 110 99 98 96 88 77 73 65 52 49 49 45 41 38 34 30 28
27 6 7 15 26 39 35 19 24 39 49 36 42 59 72 81 73 82 85 91 84 85 94 97 99 108 121 119 129 134 140 125 114 108 107 100 90 81 73 64 50 43 41 40 35 33 31 27 24
4 8 15 13 28 22 20 44 46 42 30 36 48 66 79 80 98 99 99 86 80 85 92 97 105 103 116 121 126 126 139 141 112 108 104 97 88 83 79 72 62 48 41 40 36 33 29 24 20
16 10 6 8 18 32 28 49 27 38 40 39 46 61 78 92 91 89 85 80 55 70 80 88 96 104 115 121 121 124 127 125 111 122 110 97 91 82 74 75 68 57 50 48 42 30 21 15 14
7 6 11 10 13 17 25 28 13 37 33 43 55 74 86 92 83 83 85 41 38 51 65 77 89 104 103 122 121 121 123 115 120 112 104 95 85 77 79 74 67 63 57 46 38 32 22 21 31
15 11 11 10 18 28 28 46 45 27 47 54 60 78 86 86 76 63 53 32 48 53 60 70 87 99 116 116 107 121 123 121 121 109 97 90 80 73 83 84 75 61 50 35 31 29 32 35 30
Wind_Direction_850mb
326 337 337 325 242 239 236 226 240 211 228 178 150 203 232 305 227 333 270 187 172 180 179 187 187 190 184 192 189 185 187 187 175 167 167 163 155 143 138 135 132 126 122 121 120 117 116 113 107
320 330 323 224 248 238 237 232 219 228 235 212 202 212 235 252 230 274 256 185 182 182 180 185 186 181 182 195 193 185 187 183 168 157 161 157 149 143 140 139 131 130 129 127 121 116 115 115 111
312 319 278 245 240 245 263 211 249 241 322 221 217 222 229 211 234 222 205 183 178 183 184 188 186 181 185 196 199 200 191 183 165 165 161 162 154 152 149 138 143 139 131 123 115 109 105 114 111
288 292 223 245 241 246 252 310 244 267 109 259 286 247 248 227 210 218 224 189 181 182 186 191 185 184 192 195 197 203 194 186 178 167 170 163 160 160 148 148 141 139 127 125 115 105 110 117 114
251 240 251 245 256 260 249 283 257 269 295 283 270 272 274 283 249 253 232 198 183 180 188 191 187 187 194 197 195 194 198 194 185 179 175 170 169 165 159 149 136 131 129 122 118 113 113 115 118
226 259 241 250 254 255 267 270 271 270 274 277 268 271 272 275 270 256 222 198 187 184 186 190 191 196 196 198 197 198 200 197 187 184 178 176 169 159 151 145 134 136 133 125 122 120 120 120 114
242 240 253 263 265 263 262 290 266 278 282 276 266 269 280 288 267 246 217 197 190 187 189 189 191 197 202 202 201 205 200 199 192 190 186 177 169 162 153 148 154 147 145 140 135 141 140 141 128
228 252 258 251 260 261 262 268 271 274 277 277 221 265 265 305 296 239 210 197 195 195 191 192 194 200 204 207 207 205 204 195 194 193 186 178 174 171 167 160 154 151 152 150 149 154 156 148 148
198 244 249 251 258 268 263 255 245 270 272 268 262 264 276 294 294 231 202 194 200 203 197 196 198 197 196 201 206 206 202 198 193 190 187 181 177 172 169 166 160 157 162 157 163 166 179 205 161
223 242 261 271 285 277 285 274 281 276 266 261 256 265 281 275 267 231 211 205 204 209 199 206 200 199 199 200 204 203 199 195 194 190 187 183 180 177 176 170 165 166 173 172 180 200 206 191 158
232 254 303 253 327 330 296 284 275 275 263 264 269 272 260 248 242 240 237 228 221 214 206 210 209 207 205 203 201 196 196 194 194 192 190 185 181 187 177 180 180 174 185 188 192 199 202 191 175
274 258 330 305 317 312 295 295 278 273 270 274 271 272 263 246 247 240 231 234 225 218 217 214 213 209 211 206 203 200 197 197 194 192 191 188 186 187 182 182 181 183 193 204 207 205 209 196 192
254 295 307 301 298 290 288 275 273 269 273 268 272 269 262 255 245 239 237 235 232 225 224 220 215 216 210 209 204 203 202 200 196 193 190 189 189 189 182 188 186 193 201 208 211 209 209 203 196
311 293 294 294 296 294 282 292 286 274 276 270 272 271 268 262 254 249 244 231 229 235 234 225 222 219 216 212 207 205 204 202 197 194 195 194 195 192 189 192 198 204 209 213 206 214 213 200 193
285 293 298 68 343 311 331 283 247 357 357 314 303 299 278 266 264 258 252 245 234 233 228 227 221 220 220 214 212 209 206 204 200 198 197 200 198 193 195 200 205 208 215 206 209 213 206 196 193
293 271 342 340 319 327 335 289 297 321 310 307 302 294 286 283 278 268 259 251 242 233 225 232 227 220 221 214 214 210 208 210 204 202 202 200 197 199 207 208 214 213 213 215 214 213 199 195 194
27 318 318 322 298 310 305 301 307 299 297 295 292 288 286 279 273 268 266 258 247 238 227 232 229 223 224 213 213 211 211 211 209 207 203 199 200 204 204 211 216 216 218 216 214 208 203 201 198
315 315 297 296 310 307 301 287 292 296 290 285 284 282 277 270 267 265 262 262 254 243 230 227 228 224 220 214 211 210 211 209 210 207 204 203 201 206 209 212 216 219 219 217 213 209 203 203 202
294 285 288 293 297 300 287 289 294 291 288 281 279 278 278 275 271 267 258 254 256 249 230 231 222 216 217 210 211 210 209 206 207 207 206 203 207 208 213 216 217 221 220 216 216 210 208 201 202
286 289 288 287 284 302 296 295 294 289 277 280 281 278 274 279 278 271 262 253 249 249 238 229 220 217 219 218 214 211 209 206 207 207 205 205 209 212 217 219 219 217 214 212 214 211 206 207 201
291 278 290 293 311 288 290 288 303 300 292 288 287 283 283 282 284 283 270 259 252 244 239 224 225 217 219 222 214 209 208 207 206 206 205 208 212 215 219 219 220 218 216 219 214 212 214 213 205
303 332 303 300 313 306 335 297 309 294 303 296 300 309 300 301 297 289 278 265 257 249 241 233 221 211 217 220 208 212 210 206 206 206 206 209 214 216 219 219 215 215 216 214 213 212 213 218 218
283 318 298 293 290 302 286 245 302 299 305 307 318 306 307 305 304 302 288 270 260 250 239 234 221 219 211 219 213 215 213 209 206 205 207 209 213 216 218 214 211 211 210 206 208 208 207 213 220
295 301 299 290 265 242 275 252 293 296 309 307 311 303 309 311 304 298 297 281 263 250 242 228 226 210 214 217 218 216 212 205 206 204 204 207 212 214 215 205 205 205 205 202 200 202 206 209 218
251 332 320 301 282 286 305 296 264 284 300 279 296 298 308 312 304 300 295 281 267 250 236 228 221 218 213 216 221 214 212 211 208 209 207 206 209 208 209 204 200 199 200 196 195 197 201 199 205
309 273 302 302 313 301 304 252 267 300 303 276 280 293 312 311 305 299 291 284 264 242 231 223 218 214 210 214 216 216 213 209 208 209 207 207 210 209 202 192 181 184 188 184 183 185 186 188 192
91 243 314 270 269 275 269 275 289 278 292 284 301 311 305 310 315 302 296 283 267 234 222 218 215 217 210 213 212 204 208 207 205 208 207 203 203 203 196 188 185 176 179 182 177 179 176 180 191
229 350 274 272 301 301 289 291 281 303 305 314 310 314 318 311 307 303 296 289 258 224 219 213 210 211 209 210 204 213 209 205 200 206 205 201 199 204 197 182 171 173 179 176 169 160 157 187 237
223 253 219 286 263 291 306 300 302 313 308 312 315 318 318 313 311 310 313 285 242 223 214 207 205 204 203 203 205 207 209 203 208 198 198 199 196 197 184 175 169 173 173 173 165 161 194 218 230
241 253 239 275 289 275 285 277 287 285 322 312 317 324 319 317 312 314 316 264 243 224 213 209 200 201 205 207 209 208 206 201 199 194 197 188 191 187 180 174 174 176 172 177 206 193 210 220 220